[[{"header":{"parameterUnit":"m.s-1","parameterCategory":1,"la1":30.2991,"la2":30.254,"lo1":-89.0895,"lo2":-89.0444,"dy":0.0017,"dx":0.0017,"nx":28,"ny":28,"refTime":"2023-10-30T03:00:00:Z","depth":0,"parameterNumber":2,"parameterNumberName":"U-component_of_WINDS"},"data":[0,0,0,0,0,0,0,0,0,0,0,0,0,0,0,0,0,0,0,0,0,0,0,0,0,0,0,0,0,0,0,0,0,0,0,0,0,0,0,0,0,0,0,0,0,0,0,0,0,0,0,0,0,0,0,0,0,0,-0.0778,-0.0778,0,-0.0757,-0.0756,-0.0756,-0.0762,-0.0762,-0.0763,-0.0763,-0.0741,-0.074,-0.0739,0,0,0,0,0,0,0,0,0,0,0,0,0,-0.0823,-0.0822,-0.0778,-0.0778,-0.0778,-0.0757,-0.0756,-0.0756,-0.0762,-0.0762,-0.0763,-0.0763,-0.0742,-0.0741,-0.0739,0,0,0,0,0,0,0,0,0,0,0,0,0,-0.0803,-0.0822,-0.0778,-0.0778,-0.0778,-0.0757,-0.0756,-0.0756,-0.0762,-0.0762,-0.0763,-0.0764,-0.0742,-0.0741,-0.0739,-0.0717,0,0,-0.0735,-0.0734,0,0,0,0,0,0,0,0,-0.0804,-0.0801,-0.0778,-0.0778,-0.0778,-0.0763,-0.0764,-0.0743,-0.0762,-0.0768,-0.0763,-0.0764,-0.0748,-0.0746,-0.0741,-0.0716,-0.0715,-0.0735,-0.0734,-0.0733,-0.0733,0,0,0,0,0,0,0,-0.0805,-0.0802,-0.077,-0.0778,-0.0778,-0.0779,-0.0776,-0.076,-0.0755,-0.0767,-0.0768,-0.0765,-0.0748,-0.0742,-0.074,-0.0715,-0.0735,-0.0733,-0.0732,-0.0732,-0.0669,-0.0668,0,0,0,0,0,0,-0.0807,-0.0803,-0.077,-0.0769,-0.0793,-0.0777,-0.0775,-0.0767,-0.0755,-0.0753,-0.0765,-0.0765,-0.0744,-0.0742,-0.0739,-0.0711,-0.0733,-0.0732,-0.0731,-0.0669,-0.0668,-0.0668,0,0,0,0,0,0,-0.0808,-0.0804,-0.0771,-0.0786,-0.0782,-0.0776,-0.0767,-0.0766,-0.076,-0.0753,-0.0752,-0.076,-0.0745,-0.0741,-0.0722,-0.071,-0.0731,-0.073,-0.067,-0.0669,-0.0668,-0.0655,0,0,0,0,0,0,-0.0809,-0.0805,-0.0796,-0.0786,-0.0781,-0.0755,-0.0766,-0.0765,-0.0758,-0.0758,-0.0748,-0.0746,-0.0745,-0.0724,-0.0721,-0.0709,-0.0728,-0.0671,-0.067,-0.0668,-0.0657,-0.0654,-0.0651,0,0,0,0,0,-0.0811,-0.0794,-0.0796,-0.0792,-0.0771,-0.0754,-0.0751,-0.075,-0.0757,-0.0748,-0.0743,-0.0747,-0.0712,-0.0722,-0.0718,-0.0706,-0.0672,-0.067,-0.0669,-0.0658,-0.0654,-0.0651,0,0,0,0,0,0,-0.0804,-0.0793,-0.0795,-0.0774,-0.0765,-0.0755,-0.0744,-0.0746,-0.0735,-0.0736,-0.0735,-0.0732,-0.0712,-0.0707,-0.0718,-0.0682,-0.0693,-0.069,-0.0686,-0.0683,-0.068,-0.0682,-0.0727,0,0,0,0,0,-0.08,-0.0787,-0.0778,-0.0761,-0.0756,-0.0751,-0.0743,-0.0743,-0.0733,-0.0729,-0.0723,-0.0713,-0.07,-0.0691,-0.0679,-0.0656,-0.0653,-0.0645,-0.0643,-0.064,-0.0638,-0.0623,-0.0619,-0.0662,-0.0662,-0.0662,0,0,-0.0792,-0.0784,-0.0776,-0.0759,-0.0752,-0.0738,-0.0748,-0.0733,-0.0722,-0.0727,-0.0708,-0.0703,-0.0692,-0.067,-0.066,-0.0665,-0.0625,-0.0638,-0.0636,-0.0635,-0.0621,-0.0617,-0.0614,-0.0661,-0.0661,-0.0661,0,0,-0.0769,-0.0763,-0.0747,-0.0739,-0.0727,-0.0724,-0.072,-0.0709,-0.0705,-0.0686,-0.0689,-0.0676,-0.0654,-0.0645,-0.0638,-0.061,-0.0613,-0.0606,-0.0592,-0.0578,-0.0574,-0.0571,-0.056,-0.0556,-0.0604,-0.0604,-0.0604,0,-0.0761,-0.074,-0.0738,-0.0723,-0.0714,-0.0717,-0.07,-0.0693,-0.0678,-0.0672,-0.0678,-0.0648,-0.0642,-0.0617,-0.061,-0.0604,-0.0599,-0.0607,-0.0575,-0.0572,-0.0569,-0.0558,-0.0554,-0.0603,-0.0603,-0.0603,-0.0603,0,-0.0729,-0.0714,-0.0703,-0.0687,-0.0678,-0.0662,-0.0657,-0.0647,-0.0647,-0.0642,-0.0621,-0.0613,-0.0598,-0.0592,-0.0592,-0.0567,-0.057,-0.0576,-0.0586,-0.0564,-0.0554,-0.055,-0.0602,-0.0602,-0.0602,-0.0603,0,0,-0.0702,-0.0685,-0.068,-0.0673,-0.0659,-0.0648,-0.0631,-0.0616,-0.0607,-0.0596,-0.0581,-0.0561,-0.0566,-0.0557,-0.0556,-0.0544,-0.052,-0.0551,-0.0551,-0.0544,-0.049,-0.0485,-0.048,-0.0522,-0.0522,-0.0521,-0.049,0,-0.0678,-0.0648,-0.0645,-0.0619,-0.0604,-0.0606,-0.0591,-0.0581,-0.0576,-0.0562,-0.0557,-0.0542,-0.055,-0.0544,-0.0532,-0.0526,-0.0509,-0.0528,-0.0508,-0.0507,-0.0509,-0.0475,-0.047,-0.0442,-0.0486,-0.0486,-0.0485,0,-0.0646,-0.0632,-0.0604,-0.0591,-0.0585,-0.0571,-0.0556,-0.0544,-0.0531,-0.0528,-0.0518,-0.0518,-0.05,-0.0511,-0.0486,-0.0498,-0.049,-0.0485,-0.0484,-0.0481,-0.0494,-0.047,-0.0433,-0.0428,-0.0479,-0.048,-0.048,0,-0.0627,-0.0603,-0.0582,-0.0575,-0.056,-0.055,-0.0543,-0.0532,-0.0522,-0.0508,-0.0502,-0.0487,-0.0478,-0.0466,-0.0462,-0.0471,-0.0435,-0.0447,-0.0432,-0.0432,-0.0424,-0.0424,-0.0383,-0.042,-0.042,-0.042,-0.042,0,-0.0599,-0.0582,-0.0573,-0.056,-0.054,-0.0536,-0.0516,-0.0509,-0.0499,-0.0484,-0.0485,-0.0471,-0.0467,-0.0452,-0.0448,-0.0426,-0.0423,-0.0419,-0.0418,-0.0419,-0.0419,-0.0412,-0.0414,-0.0419,-0.0419,-0.0419,-0.042,0,-0.0575,-0.0569,-0.0546,-0.0533,-0.0529,-0.0514,-0.0502,-0.0489,-0.0484,-0.0465,-0.0461,-0.0452,-0.0434,-0.0429,-0.0408,-0.0405,-0.0379,-0.0381,-0.0383,-0.0383,-0.0367,-0.0368,-0.032,-0.0312,-0.0355,-0.0355,-0.0354,0,-0.0558,-0.0544,-0.0528,-0.0518,-0.051,-0.0495,-0.0484,-0.048,-0.0469,-0.0453,-0.0441,-0.0424,-0.0409,-0.0381,-0.0372,-0.0356,-0.0356,-0.034,-0.0354,-0.0354,-0.0354,-0.0354,-0.0352,-0.0337,-0.0337,-0.0337,-0.0336,0,-0.0527,-0.0524,-0.0509,-0.0492,-0.0479,-0.0466,-0.0453,-0.0445,-0.0438,-0.0426,-0.0407,-0.0396,-0.0374,-0.0356,-0.0338,-0.0331,-0.0332,-0.0332,-0.0327,-0.0327,-0.0328,-0.0326,-0.0375,-0.0333,-0.0334,-0.0334,-0.0334,-0.0334,-0.0504,-0.0491,-0.0478,-0.046,-0.045,-0.0437,-0.0424,-0.0416,-0.04,-0.0381,-0.038,-0.0359,-0.0346,-0.0322,-0.0314,-0.0297,-0.0302,-0.0295,-0.0293,-0.0292,-0.0289,-0.0332,-0.0294,-0.0294,-0.0294,-0.0294,-0.0295,0,-0.0472,-0.0463,-0.0447,-0.0428,-0.0414,-0.0416,-0.0401,-0.0389,-0.0371,-0.0358,-0.0344,-0.0321,-0.0303,-0.0293,-0.0275,-0.0263,-0.0263,-0.0258,-0.0259,-0.0257,-0.0287,-0.0293,-0.0259,-0.0259,-0.0259,-0.0259,-0.0259,-0.0259,-0.0453,-0.0431,-0.0426,-0.0397,-0.0388,-0.0368,-0.0359,-0.0347,-0.0336,-0.0311,-0.0296,-0.0289,-0.0276,-0.0257,-0.024,-0.0237,-0.023,-0.0225,-0.0222,-0.0251,-0.0255,-0.0258,-0.0263,-0.0223,-0.0223,-0.0193,-0.0192,-0.0192]},{"header":{"parameterUnit":"m.s-1","parameterCategory":1,"la1":30.2991,"la2":30.254,"lo1":-89.0895,"lo2":-89.0444,"dy":0.0017,"dx":0.0017,"nx":28,"ny":28,"refTime":"2023-10-30T03:00:00:Z","depth":0,"parameterNumber":3,"parameterNumberName":"V-component_of_WINDS"},"data":[0,0,0,0,0,0,0,0,0,0,0,0,0,0,0,0,0,0,0,0,0,0,0,0,0,0,0,0,0,0,0,0,0,0,0,0,0,0,0,0,0,0,0,0,0,0,0,0,0,0,0,0,0,0,0,0,0,0,-0.0389,-0.0387,0,-0.0163,-0.0161,-0.0158,-0.0091,-0.0093,-0.0094,-0.0095,0.0137,0.0144,0.0151,0,0,0,0,0,0,0,0,0,0,0,0,0,-0.076,-0.0754,-0.0389,-0.0386,-0.0384,-0.0164,-0.0161,-0.0158,-0.0091,-0.0093,-0.0094,-0.0095,0.0134,0.0143,0.0152,0,0,0,0,0,0,0,0,0,0,0,0,0,-0.0573,-0.0752,-0.039,-0.0324,-0.0316,-0.0164,-0.0161,-0.0157,-0.0091,-0.0093,-0.0094,-0.0096,0.0132,0.0142,0.0153,0.0255,0,0,0.0186,0.0191,0,0,0,0,0,0,0,0,-0.0584,-0.056,-0.0337,-0.0328,-0.0319,-0.0157,-0.0206,-0.0019,-0.009,-0.0176,-0.0095,-0.0097,0.004,0.0059,0.0105,0.0266,0.0276,0.0187,0.0194,0.0198,0.0202,0,0,0,0,0,0,0,-0.0597,-0.0569,-0.03,-0.0333,-0.0323,-0.0305,-0.028,-0.0171,-0.0061,-0.0169,-0.0164,-0.0138,0.0045,0.0094,0.0111,0.028,0.0187,0.0197,0.0203,0.0208,0.054,0.0542,0,0,0,0,0,0,-0.0622,-0.058,-0.0307,-0.0293,-0.0459,-0.0297,-0.0269,-0.0207,-0.0062,-0.0041,-0.0137,-0.0136,0.0076,0.0098,0.0119,0.0252,0.0198,0.0209,0.0215,0.0538,0.054,0.0543,0,0,0,0,0,0,-0.063,-0.0598,-0.0316,-0.0435,-0.0398,-0.0289,-0.022,-0.0202,-0.0153,-0.0037,-0.0017,-0.0106,0.0076,0.0104,0.0222,0.026,0.0213,0.0223,0.0535,0.0539,0.0542,0.0515,0,0,0,0,0,0,-0.0641,-0.0601,-0.0562,-0.0435,-0.0392,-0.0218,-0.0217,-0.0196,-0.0134,-0.0131,-0.0004,0.0016,0.0077,0.0205,0.0233,0.0274,0.0232,0.0532,0.0537,0.0541,0.0513,0.0517,0.052,0,0,0,0,0,-0.0654,-0.0579,-0.056,-0.0528,-0.034,-0.0216,-0.0191,-0.0123,-0.0131,-0.009,-0.0015,0.0012,0.0251,0.0217,0.0248,0.0294,0.053,0.0535,0.054,0.0511,0.0516,0.052,0,0,0,0,0,0,-0.0705,-0.0561,-0.0539,-0.0421,-0.0331,-0.0205,-0.0151,-0.012,-0.0026,-0.0027,0.0054,0.0083,0.0195,0.0256,0.0215,0.0402,0.0392,0.0403,0.0358,0.0364,0.0368,0.0352,0.0241,0,0,0,0,0,-0.0702,-0.0614,-0.0493,-0.04,-0.0356,-0.0262,-0.0205,-0.016,-0.0063,-0.0025,0.0058,0.015,0.0247,0.0309,0.0404,0.0521,0.0551,0.0569,0.0572,0.0575,0.0584,0.0654,0.0664,0.056,0.056,0.056,0,0,-0.0696,-0.0607,-0.0556,-0.0408,-0.0333,-0.0242,-0.023,-0.0135,-0.0066,-0.0011,0.0107,0.0171,0.0279,0.0398,0.0455,0.0453,0.062,0.0581,0.0583,0.0591,0.066,0.067,0.0679,0.0563,0.0563,0.0562,0,0,-0.0638,-0.0562,-0.0475,-0.04,-0.0287,-0.0224,-0.0203,-0.0081,-0.0036,0.0083,0.0127,0.0211,0.0374,0.0451,0.0511,0.0601,0.0631,0.063,0.065,0.0717,0.0725,0.0733,0.0767,0.0778,0.0639,0.0639,0.0639,0,-0.0644,-0.0505,-0.0434,-0.034,-0.0275,-0.022,-0.013,-0.0061,0.0077,0.0121,0.0116,0.0325,0.0402,0.0541,0.0563,0.0609,0.0637,0.0616,0.0718,0.0727,0.0735,0.0769,0.0781,0.0638,0.0638,0.0638,0.0638,0,-0.0517,-0.0422,-0.0365,-0.0232,-0.0161,-0.007,0.0017,0.008,0.012,0.0183,0.0305,0.0399,0.0516,0.0552,0.0591,0.0697,0.0693,0.0702,0.0693,0.0743,0.0776,0.079,0.0637,0.0637,0.0637,0.0638,0,0,-0.0485,-0.0312,-0.0292,-0.023,-0.01,-0.0024,0.007,0.0185,0.0239,0.0332,0.0415,0.0554,0.0564,0.0632,0.0681,0.0739,0.0807,0.0742,0.0746,0.0753,0.0934,0.0927,0.0941,0.0827,0.083,0.0832,0.0925,0,-0.0408,-0.0237,-0.0169,-0.003,0.0061,0.0115,0.0198,0.0288,0.035,0.0437,0.0506,0.0603,0.0608,0.065,0.071,0.0786,0.0845,0.078,0.0906,0.091,0.0879,0.0958,0.0951,0.1034,0.0938,0.0941,0.0942,0,-0.0296,-0.02,-0.0052,0.007,0.0111,0.0184,0.0296,0.0377,0.048,0.0522,0.0599,0.0644,0.0747,0.0731,0.0875,0.0829,0.0885,0.093,0.0935,0.095,0.093,0.0978,0.1062,0.1075,0.0963,0.0961,0.096,0,-0.0285,-0.0118,-0.0007,0.0045,0.0188,0.0239,0.0301,0.0403,0.0468,0.0565,0.0609,0.0717,0.0776,0.0859,0.0933,0.0914,0.1071,0.106,0.1109,0.1108,0.1141,0.1138,0.1238,0.1173,0.1173,0.1173,0.1173,0,-0.0205,-0.0116,0.0001,0.0069,0.0172,0.025,0.0349,0.0416,0.0506,0.0589,0.0642,0.0719,0.0811,0.0901,0.0959,0.1071,0.1096,0.1134,0.1149,0.113,0.1126,0.1169,0.1166,0.1176,0.1176,0.1175,0.1174,0,-0.0174,-0.0093,0.0032,0.0159,0.0193,0.0263,0.0372,0.0441,0.0507,0.0612,0.0641,0.0743,0.0852,0.0933,0.1073,0.1112,0.1232,0.1246,0.1197,0.1205,0.1251,0.1246,0.1383,0.1406,0.1324,0.1325,0.1325,0,-0.0128,-0.0058,0.0077,0.0137,0.0199,0.0294,0.0362,0.0442,0.051,0.0634,0.0689,0.0801,0.0895,0.1065,0.1153,0.1261,0.1279,0.132,0.1296,0.1276,0.1283,0.1279,0.1287,0.1323,0.1324,0.1324,0.1325,0,-0.0054,-0.0016,0.0078,0.0188,0.0267,0.0358,0.0449,0.0495,0.0591,0.0665,0.0777,0.085,0.0994,0.1105,0.1222,0.1287,0.1323,0.1331,0.1349,0.1332,0.1302,0.1321,0.1208,0.1328,0.1328,0.1328,0.1327,0.1327,-0.0012,0.0054,0.016,0.0265,0.0342,0.0427,0.0499,0.0574,0.0668,0.0792,0.0834,0.095,0.1053,0.1214,0.1281,0.1373,0.1374,0.1398,0.1405,0.1411,0.141,0.1285,0.1394,0.1394,0.1394,0.1394,0.1394,0,0.0067,0.0138,0.0234,0.0361,0.0444,0.047,0.0573,0.0641,0.0742,0.0836,0.0928,0.1057,0.1166,0.1262,0.1376,0.1431,0.1451,0.1459,0.1456,0.1471,0.1402,0.1377,0.1441,0.1441,0.1441,0.1441,0.1441,0.1441,0.0118,0.0233,0.0283,0.0437,0.0508,0.0622,0.0679,0.0758,0.0834,0.0976,0.1067,0.1129,0.1225,0.1346,0.1447,0.1473,0.1513,0.1517,0.1547,0.1481,0.1476,0.147,0.1447,0.1525,0.1525,0.1609,0.161,0.161]}]]